Asheville, NC

1:02 PM EDT on July 24, 2017 (GMT -0400)
Asheville Regional

Weather History for KAVL - March, 2013

Change the Weather History Date:

Tuesday, March 26, 2013

  Actual Average Record
Temperature  
Mean Temperature 34 °F 50 °F  
Max Temperature 39 °F 62 °F 79 °F (1944)
Min Temperature 28 °F 38 °F 13 °F (1955)
Degree Days  
Heating Degree Days 31 15  
Month to date heating degree days 610 481  
Since 1 July heating degree days 3551 3698  
Cooling Degree Days 0 0  
Month to date cooling degree days 0 0  
Year to date cooling degree days 0 0  
Moisture  
Dew Point 22 °F    
Average Humidity 62    
Maximum Humidity 75    
Minimum Humidity 48    
Precipitation  
Precipitation T in 0.13 in 3.00 in (1901)
Month to date precipitation 2.96 3.20  
Year to date precipitation 15.10 10.63  
Snow  
Snow T in 0.10 in 3.00 in (1947)
Month to date snowfall 0.3 1.7  
Since 1 July snowfall 0.5 9.0  
Snow Depth 0.00 in    
Sea Level Pressure  
Sea Level Pressure 30.03 in    
Wind  
Wind Speed 15 mph (NNW)    
Max Wind Speed 25 mph    
Max Gust Speed 33 mph    
Visibility 10 miles    
Events Snow    
T = Trace of Precipitation, MM = Missing Value Source: NWS Daily Summary

Daily Weather History Graph

Daily Weather History Graph

Search for Another Location

Airport or City:

Trip Planner

Search our weather history database for the weather conditions in past years. The results will help you decide how hot, cold, wet, or windy it might be!

Date:

Astronomy

Mar. 26, 2013 Rise Set
Actual Time 7:24 AM EDT 7:47 PM EDT
Civil Twilight 6:59 AM EDT 8:12 PM EDT
Nautical Twilight 6:29 AM EDT 8:42 PM EDT
Astronomical Twilight 5:59 AM EDT 9:12 PM EDT
Moon 7:21 PM EDT (3/26) 6:40 AM EDT (3/26)
Length of Visible Light 13h 13m
Length of Day
12h 22m
Waxing Gibbous, 99% of the Moon is Illuminated
Mar 26
Waxing Gibbous
Mar 27
Full
Apr 3
Last Quarter
Apr 10
New
Apr 18
First Quarter

Hourly Weather History & Observations

Time (EDT) Temp. Windchill Dew Point Humidity Pressure Visibility Wind Dir Wind Speed Gust Speed Precip Events Conditions
12:54 AM 30.0 °F 18.3 °F 21.0 °F 69% 29.89 in 10.0 mi NNW 17.3 mph 25.3 mph 0.00 in Snow Light Snow
1:54 AM 28.9 °F 18.6 °F 21.0 °F 72% 29.91 in 10.0 mi NW 12.7 mph - 0.00 in   Overcast
2:54 AM 28.9 °F 18.6 °F 21.9 °F 75% 29.91 in 9.0 mi NNW 12.7 mph 21.9 mph 0.00 in Snow Light Snow
3:54 AM 28.0 °F 15.7 °F 21.0 °F 75% 29.91 in 10.0 mi NNW 17.3 mph 23.0 mph 0.00 in   Overcast
4:54 AM 28.9 °F 18.6 °F 21.0 °F 72% 29.91 in 10.0 mi NNW 12.7 mph 21.9 mph 0.00 in   Overcast
5:54 AM 28.9 °F 16.1 °F 21.0 °F 72% 29.91 in 10.0 mi NNW 19.6 mph 27.6 mph 0.00 in   Overcast
6:54 AM 28.9 °F 18.6 °F 21.0 °F 72% 29.92 in 10.0 mi North 12.7 mph 24.2 mph 0.00 in   Overcast
7:54 AM 28.9 °F 17.7 °F 21.9 °F 75% 29.94 in 10.0 mi NNW 15.0 mph 21.9 mph 0.00 in   Overcast
8:54 AM 30.9 °F 19.1 °F 21.9 °F 69% 29.95 in 10.0 mi NNW 18.4 mph 28.8 mph 0.00 in   Mostly Cloudy
9:54 AM 34.0 °F 22.4 °F 21.9 °F 61% 29.99 in 10.0 mi NNW 20.7 mph 31.1 mph N/A   Overcast
10:54 AM 34.0 °F 22.1 °F 21.9 °F 61% 30.01 in 10.0 mi NNW 21.9 mph 29.9 mph 0.00 in Snow Light Snow
11:54 AM 34.0 °F 22.4 °F 19.9 °F 56% 30.04 in 10.0 mi NNW 20.7 mph 29.9 mph 0.00 in   Overcast
12:54 PM 36.0 °F 26.0 °F 21.0 °F 55% 30.05 in 10.0 mi NNW 17.3 mph 25.3 mph N/A   Overcast
1:54 PM 37.0 °F 26.7 °F 19.9 °F 50% 30.05 in 10.0 mi North 19.6 mph 26.5 mph N/A   Overcast
2:54 PM 36.0 °F 27.1 °F 23.0 °F 59% 30.06 in 10.0 mi North 13.8 mph 20.7 mph N/A   Overcast
3:54 PM 37.9 °F 27.9 °F 21.9 °F 53% 30.07 in 9.0 mi NNW 19.6 mph 25.3 mph 0.00 in   Overcast
4:54 PM 36.0 °F 25.6 °F 24.1 °F 62% 30.08 in 10.0 mi NW 18.4 mph 25.3 mph 0.00 in Snow Light Snow
5:54 PM 34.0 °F 25.0 °F 24.1 °F 67% 30.10 in 10.0 mi NNW 12.7 mph 20.7 mph 0.00 in   Overcast
6:25 PM 33.8 °F 23.5 °F 23.0 °F 65% 30.08 in 8.0 mi NNW 16.1 mph 24.2 mph 0.00 in Snow Light Snow
6:54 PM 34.0 °F 25.0 °F 23.0 °F 64% 30.12 in 10.0 mi NNW 12.7 mph 19.6 mph 0.00 in   Overcast
7:54 PM 32.0 °F 22.1 °F 23.0 °F 69% 30.14 in 10.0 mi NNW 13.8 mph 25.3 mph N/A   Overcast
8:54 PM 30.9 °F 21.7 °F 23.0 °F 72% 30.16 in 10.0 mi NNW 11.5 mph - N/A   Partly Cloudy
9:54 PM 30.9 °F 22.2 °F 25.0 °F 79% 30.17 in 9.0 mi North 10.4 mph 23.0 mph 0.00 in Snow Light Snow
10:54 PM 30.0 °F 21.1 °F 24.1 °F 79% 30.19 in 10.0 mi North 10.4 mph 19.6 mph 0.00 in   Clear
11:54 PM 30.9 °F 21.7 °F 23.0 °F 72% 30.19 in 10.0 mi North 11.5 mph - N/A   Scattered Clouds